Weather History for Staunton, VA

Change the Weather History Date:

Wednesday, September 4, 2013

  Actual Average Record
Temperature  
Mean Temperature 64 °F -  
Max Temperature 78 °F 81 °F 96 °F (2002)
Min Temperature 50 °F 58 °F 35 °F (1999)
Degree Days  
Heating Degree Days 1    
Growing Degree Days 14 (Base 50)    
Moisture  
Dew Point 54 °F    
Average Humidity 72    
Maximum Humidity 96    
Minimum Humidity 34    
Precipitation  
Precipitation 0.00 in - - ()
Sea Level Pressure  
Sea Level Pressure 30.11 in    
Wind  
Wind Speed 1 mph (SE)    
Max Wind Speed 6 mph    
Max Gust Speed -    
Visibility 9 miles    
Events Fog    
Averages and records for this station are not official NWS values.
T = Trace of Precipitation, MM = Missing Value Source: NWS Daily Summary

Daily Weather History Graph

Daily Weather History Graph

Search for Another Location

Airport:

Trip Planner

Search our weather history database for the weather conditions in past years. The results will help you decide how hot, cold, wet, or windy it might be!

Date:

Astronomy

Sep. 04, 2013 Rise Set
Actual Time 6:47 AM EDT 7:40 PM EDT
Civil Twilight 6:21 AM EDT 8:07 PM EDT
Nautical Twilight 5:49 AM EDT 8:39 PM EDT
Astronomical Twilight 5:16 AM EDT 9:11 PM EDT
Moon 5:58 AM EDT (9/4) 6:59 PM EDT (9/4)
Length of Visible Light 13h 46m
Length of Day
12h 52m
Waning Crescent, 1% of the Moon is Illuminated
Sep 4
Waning Crescent
Sep 5
New
Sep 12
First Quarter
Sep 19
Full
Sep 26
Last Quarter

Hourly Weather History & Observations

Time (EDT) Temp. Dew Point Humidity Pressure Visibility Wind Dir Wind Speed Gust Speed Precip Events Conditions
12:15 AM 61.3 °F 55.4 °F 81% 30.05 in 10.0 mi Calm Calm - N/A   Clear
12:35 AM 60.4 °F 55.2 °F 83% 30.05 in 10.0 mi Calm Calm - N/A   Clear
12:55 AM 59.0 °F 55.4 °F 88% 30.05 in 10.0 mi Calm Calm - N/A   Clear
1:15 AM 58.8 °F 55.0 °F 87% 30.05 in 10.0 mi Calm Calm - N/A   Clear
1:35 AM 58.3 °F 55.0 °F 89% 30.05 in 10.0 mi Calm Calm - N/A   Clear
1:55 AM 58.1 °F 54.9 °F 89% 30.05 in 10.0 mi Calm Calm - N/A   Clear
2:15 AM 56.8 °F 54.0 °F 90% 30.05 in 10.0 mi Calm Calm - N/A   Clear
2:35 AM 57.0 °F 53.8 °F 89% 30.05 in 10.0 mi Calm Calm - N/A   Clear
2:55 AM 57.2 °F 54.3 °F 90% 30.06 in 10.0 mi Calm Calm - N/A   Clear
3:15 AM 56.3 °F 53.4 °F 90% 30.06 in 10.0 mi Calm Calm - N/A   Clear
3:35 AM 55.0 °F 52.2 °F 90% 30.07 in 10.0 mi Calm Calm - N/A   Clear
3:55 AM 55.4 °F 52.9 °F 91% 30.07 in 10.0 mi Calm Calm - N/A   Clear
4:15 AM 54.9 °F 52.5 °F 92% 30.08 in 10.0 mi Calm Calm - N/A   Clear
4:35 AM 54.0 °F 51.3 °F 91% 30.08 in 10.0 mi Calm Calm - N/A   Clear
4:55 AM 54.5 °F 52.0 °F 91% 30.09 in 7.0 mi Calm Calm - N/A   Clear
5:15 AM 54.1 °F 52.2 °F 93% 30.09 in 5.0 mi Calm Calm - N/A   Clear
5:35 AM 53.2 °F 51.1 °F 92% 30.10 in 5.0 mi Calm Calm - N/A   Clear
5:55 AM 53.4 °F 51.4 °F 93% 30.10 in 5.0 mi Calm Calm - N/A   Clear
6:15 AM 52.9 °F 51.1 °F 94% 30.10 in 1.8 mi Calm Calm - N/A   Scattered Clouds
6:35 AM 51.3 °F 49.5 °F 94% 30.11 in 2.0 mi Calm Calm - N/A   Overcast
6:55 AM 52.7 °F 51.1 °F 94% 30.11 in 3.0 mi Calm Calm - N/A   Scattered Clouds
7:15 AM 50.0 °F 48.4 °F 94% 30.12 in 0.5 mi Calm Calm - N/A Fog Fog
7:35 AM 51.6 °F 50.4 °F 95% 30.13 in 0.2 mi Calm Calm - N/A Fog Fog
7:55 AM 52.5 °F 51.3 °F 95% 30.14 in 1.0 mi Calm Calm - N/A   Overcast
8:15 AM 55.6 °F 54.3 °F 96% 30.14 in 5.0 mi Calm Calm - N/A   Scattered Clouds
8:35 AM 57.7 °F 56.5 °F 96% 30.14 in 10.0 mi Calm Calm - N/A   Clear
8:55 AM 59.9 °F 55.0 °F 84% 30.14 in 10.0 mi Calm Calm - N/A   Clear
9:15 AM 62.1 °F 56.5 °F 82% 30.15 in 10.0 mi North 3.5 mph - N/A   Clear
9:35 AM 62.6 °F 55.6 °F 78% 30.15 in 10.0 mi Calm Calm - N/A   Clear
9:55 AM 63.5 °F 55.9 °F 76% 30.16 in 10.0 mi ENE 4.6 mph - N/A   Clear
10:15 AM 64.8 °F 55.9 °F 73% 30.17 in 10.0 mi Calm Calm - N/A   Clear
10:35 AM 65.8 °F 55.8 °F 70% 30.16 in 10.0 mi NNE 3.5 mph - N/A   Clear
10:55 AM 67.5 °F 56.3 °F 67% 30.16 in 10.0 mi Calm Calm - N/A   Clear
11:15 AM 68.4 °F 54.3 °F 61% 30.16 in 10.0 mi Calm Calm - N/A   Clear
11:35 AM 69.1 °F 55.2 °F 61% 30.17 in 10.0 mi Calm Calm - N/A   Clear
11:55 AM 69.3 °F 53.4 °F 57% 30.16 in 10.0 mi Calm Calm - N/A   Clear
12:15 PM 70.5 °F 53.4 °F 55% 30.15 in 10.0 mi Calm Calm - N/A   Clear
12:35 PM 71.1 °F 54.9 °F 56% 30.15 in 10.0 mi Calm Calm - N/A   Clear
12:55 PM 71.2 °F 54.1 °F 55% 30.14 in 10.0 mi Calm Calm - N/A   Clear
1:15 PM 73.4 °F 55.8 °F 54% 30.13 in 10.0 mi Calm Calm - N/A   Clear
1:35 PM 74.1 °F 56.3 °F 54% 30.13 in 10.0 mi SSE 3.5 mph - N/A   Clear
1:55 PM 73.8 °F 53.2 °F 49% 30.13 in 10.0 mi WSW 3.5 mph - N/A   Clear
2:15 PM 74.3 °F 52.7 °F 47% 30.12 in 10.0 mi North 3.5 mph - N/A   Clear
2:35 PM 76.1 °F 56.5 °F 50% 30.12 in 10.0 mi WSW 5.8 mph - N/A   Clear
2:55 PM 76.1 °F 53.2 °F 45% 30.11 in 10.0 mi South 3.5 mph - N/A   Clear
3:15 PM 76.3 °F 52.0 °F 43% 30.11 in 10.0 mi Calm Calm - N/A   Clear
3:35 PM 76.3 °F 52.5 °F 43% 30.11 in 10.0 mi Calm Calm - N/A   Clear
3:55 PM 77.0 °F 49.5 °F 38% 30.10 in 10.0 mi Calm Calm - N/A   Clear
4:15 PM 76.8 °F 52.0 °F 42% 30.10 in 10.0 mi ESE 3.5 mph - N/A   Clear
4:35 PM 77.5 °F 53.1 °F 42% 30.10 in 10.0 mi SSE 4.6 mph - N/A   Clear
4:55 PM 77.9 °F 52.5 °F 41% 30.09 in 10.0 mi South 3.5 mph - N/A   Clear
5:15 PM 78.1 °F 51.3 °F 39% 30.09 in 10.0 mi SSE 3.5 mph - N/A   Clear
5:35 PM 78.3 °F 48.0 °F 34% 30.09 in 10.0 mi SSE 4.6 mph - N/A   Clear
5:55 PM 77.9 °F 47.7 °F 34% 30.08 in 10.0 mi SSE 3.5 mph - N/A   Clear
6:15 PM 77.4 °F 49.8 °F 38% 30.08 in 10.0 mi Calm Calm - N/A   Clear
6:35 PM 76.8 °F 51.6 °F 41% 30.08 in 10.0 mi ESE 3.5 mph - N/A   Clear
6:55 PM 75.9 °F 53.4 °F 45% 30.08 in 10.0 mi Calm Calm - N/A   Clear
7:15 PM 75.7 °F 55.6 °F 49% 30.08 in 10.0 mi Calm Calm - N/A   Clear
7:35 PM 72.9 °F 55.4 °F 54% 30.09 in 10.0 mi Calm Calm - N/A   Clear
7:55 PM 70.7 °F 57.9 °F 64% 30.10 in 10.0 mi Calm Calm - N/A   Clear
8:15 PM 68.2 °F 57.4 °F 68% 30.10 in 10.0 mi Calm Calm - N/A   Clear
8:35 PM 67.5 °F 58.5 °F 73% 30.10 in 10.0 mi Calm Calm - N/A   Clear
8:55 PM 64.0 °F 59.0 °F 84% 30.10 in 10.0 mi Calm Calm - N/A   Clear
9:15 PM 63.5 °F 57.9 °F 82% 30.11 in 10.0 mi Calm Calm - N/A   Clear
9:35 PM 63.3 °F 58.1 °F 83% 30.11 in 10.0 mi Calm Calm - N/A   Clear
9:55 PM 63.5 °F 57.9 °F 82% 30.11 in 10.0 mi Calm Calm - N/A   Clear
10:15 PM 61.7 °F 56.7 °F 84% 30.12 in 10.0 mi Calm Calm - N/A   Clear
10:35 PM 61.3 °F 56.3 °F 83% 30.12 in 10.0 mi Calm Calm - N/A   Clear
10:55 PM 59.9 °F 56.3 °F 88% 30.13 in 10.0 mi Calm Calm - N/A   Clear
11:15 PM 61.0 °F 57.2 °F 87% 30.13 in 10.0 mi Calm Calm - N/A   Clear
11:35 PM 59.5 °F 55.8 °F 87% 30.13 in 10.0 mi Calm Calm - N/A   Clear
11:55 PM 58.6 °F 55.4 °F 89% 30.13 in 10.0 mi Calm Calm - N/A   Clear